Presure
150 92 99 140 149 148 139 146 129 94 117 145 117 94 96 97 127 119 115 132 131 128 135 137 110 130 133 134 116 150 140 108 136 137 133 150 115 116 126 136 130 141 145 143 149 149 147 144 148
138 131 94 84 82 84 126 147 91 132 129 92 109 143 130 116 102 116 108 124 138 132 133 136 133 138 136 134 109 143 128 127 132 136 139 133 143 147 149 149 142 145 138 139 141 141 113 135 123
152 149 145 90 138 94 100 141 122 138 147 137 143 141 134 95 136 105 128 120 113 143 129 129 139 108 135 133 130 142 136 130 127 96 145 127 134 134 129 141 138 141 143 141 148 110 145 90 150
157 153 152 150 95 147 94 90 121 133 134 139 141 97 96 88 113 134 141 146 110 118 135 151 135 132 120 127 138 145 140 132 140 139 143 135 147 143 145 143 148 140 138 135 142 88 137 139 140
173 168 154 139 138 92 157 114 139 105 144 136 151 128 131 139 138 114 102 127 127 132 142 120 121 122 131 130 116 140 125 132 139 133 124 133 129 144 139 141 145 141 146 162 149 148 149 141 149
165 183 166 139 117 149 155 132 121 125 101 119 127 106 136 125 139 136 95 96 102 95 138 127 112 152 121 127 120 136 147 133 140 118 106 133 151 149 142 136 146 160 132 160 140 142 140 133 145
169 168 174 137 92 80 147 146 69 145 112 128 83 78 136 125 108 121 161 144 133 129 133 124 105 114 109 138 103 129 111 146 129 115 143 140 138 151 125 137 121 112 135 148 134 143 147 164 159
162 161 171 179 82 152 107 152 151 83 146 123 137 136 143 107 139 141 108 164 130 141 141 126 148 138 145 126 141 130 125 134 123 151 97 157 132 140 166 155 155 116 155 159 152 130 164 162 168
177 161 162 164 169 163 174 165 160 143 148 97 112 135 132 131 139 139 161 166 126 121 132 117 111 118 134 159 150 139 124 137 128 125 126 108 171 135 144 132 141 144 176 160 148 170 128 128 159
187 169 163 154 164 183 181 165 173 134 152 153 123 72 130 130 165 109 129 140 131 154 138 148 152 142 145 167 139 136 135 145 142 149 170 163 145 177 156 171 152 109 143 152 151 100 106 143 154
189 166 166 152 169 175 187 95 165 163 169 167 161 167 81 93 166 173 137 153 161 92 153 97 155 152 149 144 135 151 121 155 149 129 165 163 171 171 145 161 173 172 170 174 112 155 160 110 163
194 189 158 174 161 169 181 183 179 168 149 148 142 149 163 168 150 162 160 156 155 164 154 151 166 160 160 154 155 135 170 158 149 169 167 149 175 175 112 173 152 170 171 163 124 92 151 169 162
194 192 175 175 168 169 168 176 183 184 174 167 136 172 155 162 154 144 124 133 123 151 147 150 145 155 154 145 144 158 173 170 159 163 162 157 164 172 175 160 144 174 166 183 126 162 138 113 228
222 199 189 196 178 172 165 167 172 178 104 174 171 165 165 167 170 158 131 147 143 136 104 113 162 170 166 147 151 170 152 169 156 166 160 169 168 174 184 173 180 160 184 167 141 172 105 186 235
222 217 198 190 186 177 169 164 159 155 169 185 176 179 176 168 167 171 174 171 173 173 161 95 97 94 155 174 168 165 173 174 172 182 154 178 162 162 183 155 170 181 170 98 101 200 100 130 152
188 222 219 205 193 176 183 177 168 65 158 181 184 167 154 154 156 160 169 169 171 173 177 176 173 173 169 108 95 175 164 166 175 178 169 183 172 178 162 180 163 224 164 203 208 234 214 227 214
221 215 191 194 222 207 191 178 170 175 172 164 155 155 152 154 151 153 160 168 167 163 171 174 166 152 149 176 171 168 124 138 179 192 168 177 173 179 145 165 175 229 236 230 224 228 106 174 155
219 219 209 186 219 131 179 178 179 179 177 171 70 157 161 161 158 158 168 167 170 171 172 152 156 161 163 165 167 170 176 181 188 180 173 175 187 199 194 207 131 191 212 213 221 122 220 166 102
225 214 209 191 218 216 216 213 172 181 179 179 180 183 185 184 178 169 152 169 172 187 98 69 166 177 170 168 175 182 179 174 185 196 193 192 185 205 216 212 229 90 217 185 227 121 113 202 221
211 220 211 195 220 179 206 210 198 199 199 194 188 189 176 177 178 178 174 182 207 165 164 166 166 160 173 174 181 180 201 202 199 197 191 191 199 205 227 214 217 214 215 209 211 212 129 225 214
259 237 221 210 213 218 215 220 213 208 208 212 209 205 198 190 194 206 207 203 195 201 196 188 188 184 181 189 189 198 205 201 195 189 196 199 185 183 189 182 196 185 211 201 206 210 214 221 177
257 253 240 218 213 193 215 211 204 209 214 214 213 209 209 211 210 200 193 188 197 192 183 189 196 198 204 197 194 199 207 189 202 200 212 202 209 202 211 214 228 215 203 201 204 204 203 236 219
257 266 241 242 218 218 201 205 198 209 210 196 214 208 200 202 205 199 202 205 201 203 205 206 207 201 203 201 197 203 195 198 204 211 210 210 215 208 199 206 206 207 205 208 195 201 211 204 212
239 244 255 254 244 224 209 209 206 198 206 209 204 199 198 208 207 209 201 203 200 201 206 199 200 204 209 212 208 208 212 206 196 196 210 210 209 205 199 203 215 194 188 198 195 204 206 198 208
231 232 249 257 258 241 219 210 207 204 204 205 205 212 192 197 211 208 206 203 204 202 197 207 204 206 206 205 204 205 205 205 205 204 204 204 203 202 205 207 221 205 202 198 203 206 210 204 210
238 229 229 261 249 251 236 229 213 210 200 209 204 210 211 211 209 208 206 209 209 205 204 208 209 208 204 203 202 210 213 211 208 201 205 212 208 208 210 215 210 209 207 201 204 206 205 212 213
237 245 244 245 252 257 241 240 241 222 213 210 206 205 202 203 208 210 210 211 213 213 211 212 212 213 214 213 211 213 215 216 215 216 209 208 207 209 227 230 214 219 212 204 203 209 208 210 235
247 244 240 233 236 244 242 245 247 240 246 227 217 216 216 217 219 218 217 217 217 212 217 218 193 186 224 224 223 224 226 223 221 222 221 230 244 247 146 149 238 233 217 206 206 219 248 248 242
244 250 237 246 242 238 232 238 241 241 249 254 253 242 241 246 251 252 248 242 243 129 211 131 246 177 91 248 224 262 217 258 216 251 256 255 244 247 245 246 241 236 232 220 250 203 246 240 231
264 250 235 237 239 241 239 244 250 251 246 249 249 261 257 254 249 249 254 245 277 185 274 273 277 190 284 96 287 285 278 271 263 258 249 231 115 133 230 169 226 230 253 252 250 238 236 226 227
Wind_Speed
73 38 41 67 68 66 70 68 65 30 42 58 43 29 28 27 49 38 40 52 48 46 47 46 32 44 46 47 34 42 45 28 49 49 46 46 33 33 42 50 45 54 52 51 50 50 49 48 49
77 71 41 32 30 26 64 67 29 67 63 32 46 56 59 41 32 41 33 45 51 50 50 52 51 52 51 50 35 49 45 44 48 49 53 49 52 53 54 55 55 56 54 54 52 51 33 45 36
81 80 72 43 74 40 36 74 55 70 63 65 61 61 63 29 56 35 52 45 41 52 48 47 54 37 52 51 50 53 49 49 45 29 56 46 52 52 47 55 54 56 56 56 58 31 56 19 57
83 81 78 75 51 88 34 39 58 71 58 69 67 42 38 29 49 61 59 61 41 46 55 56 56 54 44 49 54 56 57 51 58 58 58 54 60 59 59 58 60 57 56 54 58 18 52 54 53
89 87 80 78 88 37 85 58 65 48 75 71 63 61 63 64 62 49 40 58 56 55 61 48 48 50 55 54 42 56 47 54 61 56 45 54 49 61 57 59 63 60 62 69 65 64 63 57 63
84 88 83 85 54 97 88 68 59 62 47 57 61 40 69 62 69 67 35 36 42 33 60 52 45 63 50 52 50 58 65 58 62 43 36 53 69 68 61 55 64 72 51 72 58 61 58 52 58
86 85 86 74 40 30 87 79 15 81 58 72 34 22 73 64 50 55 68 70 66 62 63 57 45 48 45 62 40 58 43 68 54 46 65 62 62 71 46 58 46 42 56 66 51 61 66 78 77
84 85 84 89 33 98 52 83 80 28 85 65 72 73 78 54 76 76 52 72 65 71 71 59 74 67 70 57 68 59 54 62 51 74 42 76 56 64 77 72 76 46 75 77 73 51 80 78 79
95 84 87 93 99 103 101 91 85 82 86 46 55 78 77 79 73 73 78 78 64 61 66 53 52 55 65 79 78 68 56 67 61 56 52 47 80 60 67 57 63 65 78 75 63 77 49 48 80
100 91 94 97 97 99 99 90 92 75 87 85 68 20 61 66 85 54 71 79 66 80 74 79 78 75 75 78 72 70 68 77 74 80 82 77 69 79 74 82 77 49 67 77 71 37 41 66 73
101 93 99 90 99 98 97 36 88 86 89 90 90 88 34 41 83 83 78 83 82 37 81 37 81 81 82 79 71 82 56 81 82 60 85 81 84 84 69 83 84 82 84 84 48 80 84 43 86
104 103 96 100 96 94 92 92 92 90 87 90 89 87 84 79 80 84 86 80 80 81 84 83 83 84 84 82 84 73 84 86 83 87 87 76 85 86 53 83 74 82 83 82 57 30 66 91 82
105 103 100 102 98 94 85 86 88 89 95 93 69 89 83 81 82 82 65 70 61 84 82 84 82 84 83 79 79 88 87 87 86 87 87 83 84 87 88 79 72 86 83 89 56 85 68 49 83
108 108 103 108 102 96 88 86 83 90 45 88 90 87 85 82 86 90 70 86 82 71 47 56 88 88 86 82 87 91 79 89 87 90 87 90 88 91 92 89 91 83 91 89 72 92 48 72 79
103 109 109 101 102 99 94 86 85 87 84 89 87 89 89 86 87 91 90 88 89 92 92 50 53 50 79 89 91 91 90 92 92 92 85 94 86 86 93 78 88 90 88 45 48 81 45 62 59
92 104 104 112 108 98 98 90 91 19 84 85 87 85 85 88 88 90 89 87 85 90 93 91 90 90 90 52 47 90 91 93 94 93 94 93 92 95 83 92 89 84 79 84 68 74 73 76 77
100 99 91 99 105 111 97 92 93 92 92 87 85 86 86 90 89 91 90 87 84 86 91 90 87 86 83 90 88 90 63 75 96 95 95 95 94 95 68 78 93 77 68 68 70 68 56 61 61
98 97 95 90 99 49 90 89 96 93 94 92 27 91 91 91 94 90 94 91 90 90 91 81 87 91 91 90 91 93 96 97 96 92 93 94 97 96 97 81 63 88 83 79 75 61 73 66 55
100 96 96 93 94 93 95 94 96 95 92 93 94 96 98 99 100 96 85 95 95 96 47 15 93 94 92 92 94 94 94 87 95 93 94 95 99 87 81 83 70 39 75 67 67 55 54 76 73
96 96 97 96 93 79 89 92 100 101 101 100 98 100 98 99 99 98 97 102 95 93 91 92 90 90 95 95 97 93 95 90 89 90 95 96 90 84 71 76 75 76 76 76 74 75 60 73 75
85 100 101 96 92 91 91 86 90 97 96 96 97 98 100 103 102 99 94 92 94 93 94 97 95 95 96 100 99 99 92 88 85 86 87 85 87 85 85 83 82 81 75 77 77 78 76 76 68
78 87 98 96 90 84 86 84 91 91 90 90 90 91 91 91 90 92 92 91 92 94 94 96 97 98 97 99 97 93 91 91 91 88 82 84 81 85 79 76 76 80 80 81 80 83 80 75 74
70 70 89 94 92 90 88 84 95 88 88 90 88 86 88 89 90 90 90 92 92 95 97 98 98 97 97 96 95 94 92 91 92 89 86 83 81 79 81 80 80 80 81 82 81 83 85 81 78
75 72 71 82 90 92 90 86 94 90 87 88 88 87 85 88 89 90 89 91 92 95 98 99 100 101 101 99 97 95 93 89 86 88 87 86 84 78 80 82 84 84 83 83 83 86 86 85 84
82 78 71 71 74 87 94 89 91 90 87 88 85 87 84 83 87 89 92 92 93 95 95 99 100 100 100 99 97 95 92 90 89 88 87 86 87 87 86 87 87 85 88 86 87 88 88 88 88
75 71 70 58 69 71 88 91 92 94 86 88 84 86 87 87 88 89 91 93 95 95 96 98 99 100 99 98 96 98 97 94 92 89 91 95 94 95 92 94 87 87 88 87 87 89 90 90 93
69 63 63 62 60 64 76 80 88 95 92 89 86 85 83 86 89 90 91 93 96 97 98 101 102 103 103 101 98 100 101 100 97 99 93 92 93 93 103 98 91 91 89 88 89 93 93 92 85
69 66 67 65 63 64 68 71 73 83 83 88 93 92 94 95 96 96 97 100 102 100 105 107 89 85 110 108 107 105 107 103 104 107 107 107 102 96 55 59 88 89 90 91 92 92 79 73 71
66 67 64 64 65 66 70 72 71 72 72 72 76 89 91 90 88 89 94 96 101 54 98 57 120 78 29 114 96 114 88 108 87 103 100 95 93 90 83 83 83 82 82 87 73 63 71 69 68
54 70 65 63 61 62 64 68 66 67 67 68 72 71 72 75 82 86 88 87 82 55 99 104 105 72 110 34 110 108 106 103 101 98 96 89 49 56 82 66 79 79 71 67 65 69 68 68 68
Wind_Direction
224 237 239 226 226 227 232 227 235 231 228 225 239 235 235 238 237 235 246 233 237 242 232 233 243 238 238 239 253 242 243 256 249 251 255 248 271 273 275 266 274 266 262 267 265 264 266 270 270
228 234 238 241 240 238 237 228 236 235 236 230 236 228 233 230 242 242 244 235 233 240 240 236 241 237 238 242 252 244 256 262 260 258 254 263 254 252 256 257 263 262 270 272 272 273 267 269 270
227 227 231 242 231 238 230 231 233 235 233 235 230 231 233 244 232 242 242 245 246 237 245 247 240 248 246 248 253 247 248 261 264 270 254 269 266 267 272 265 268 269 270 273 270 267 273 271 274
227 229 227 227 242 232 228 235 239 241 233 237 234 241 244 241 246 239 241 241 241 246 244 242 246 250 254 254 250 252 254 262 259 261 261 265 262 264 264 267 266 269 271 274 273 259 276 276 276
230 230 227 229 233 224 236 233 232 234 235 240 234 242 244 241 240 245 245 246 247 248 245 251 256 250 255 256 257 255 261 261 259 260 265 266 268 265 269 269 269 271 272 272 272 274 275 276 277
228 230 227 229 226 235 233 235 233 234 232 235 243 247 239 247 244 243 247 246 249 239 250 249 252 251 250 251 252 258 255 262 261 268 268 267 264 265 268 273 271 270 276 269 277 275 279 277 277
228 229 229 229 218 227 235 231 229 234 240 239 250 256 245 248 244 244 247 245 249 252 252 252 251 254 258 254 254 259 262 258 270 268 265 269 273 267 273 273 270 270 272 274 274 277 277 276 277
230 229 230 233 212 234 241 233 232 237 237 243 243 244 242 242 250 251 237 246 251 252 253 255 253 258 257 261 260 264 265 265 268 265 258 266 273 270 269 270 271 265 274 273 275 266 275 275 275
230 231 228 233 236 235 234 235 234 235 239 247 246 241 245 250 251 249 252 249 254 251 258 250 248 256 260 255 259 262 263 271 267 268 272 260 267 270 274 265 276 275 267 272 271 269 263 269 280
230 228 229 231 235 239 236 236 238 238 240 242 243 250 249 248 251 252 252 254 248 251 257 256 256 261 261 259 267 269 270 267 270 269 268 267 273 267 270 267 274 264 268 279 267 272 274 277 279
229 226 229 235 233 237 238 237 236 238 242 245 246 247 251 249 249 252 252 250 251 262 253 264 257 258 260 263 267 264 258 263 270 268 268 268 268 268 278 272 268 269 272 273 270 278 278 274 279
229 230 231 231 234 235 236 238 239 238 236 239 241 244 246 246 246 251 252 251 253 252 253 256 256 258 259 262 264 263 266 267 272 267 268 277 270 269 264 270 277 273 274 274 276 270 277 277 282
229 230 231 230 233 234 234 235 239 240 239 239 243 245 245 246 246 248 250 253 252 255 258 258 260 261 262 265 264 266 267 267 271 271 272 274 275 274 274 274 272 275 276 275 262 278 277 277 282
228 228 228 232 232 233 235 234 235 240 248 240 242 244 247 248 249 249 248 251 256 255 257 257 262 264 264 265 266 268 267 270 271 272 274 275 275 277 277 276 276 276 277 277 270 279 276 279 279
227 228 229 230 232 232 234 235 234 236 239 242 242 247 248 246 247 249 251 253 255 256 257 252 253 250 263 265 266 268 270 271 273 275 273 274 275 276 277 276 278 278 277 269 270 282 273 266 276
227 228 230 232 234 233 233 235 236 239 240 241 241 239 241 245 247 249 250 251 254 258 259 260 262 263 264 260 259 268 270 270 271 273 273 275 275 277 276 278 278 286 278 280 280 280 277 278 279
227 230 229 233 234 234 234 233 237 237 239 237 241 241 242 244 248 250 252 252 252 254 260 260 260 262 264 266 266 268 268 267 272 278 274 274 277 276 275 279 278 284 283 283 282 280 267 276 271
226 227 230 232 233 237 235 234 240 239 240 238 249 245 246 246 249 252 252 254 255 254 256 260 262 262 263 265 267 268 271 274 278 277 275 275 279 283 284 280 271 281 286 285 282 266 278 274 270
226 227 230 234 234 234 237 236 240 241 241 243 243 244 248 249 249 251 255 253 254 260 263 310 260 264 263 265 267 272 273 276 277 279 278 280 279 282 280 279 280 262 283 277 283 270 273 278 279
227 227 228 233 234 232 235 236 239 243 244 246 247 248 247 250 253 253 255 261 263 257 259 259 259 263 266 269 270 271 276 275 273 274 276 279 280 281 281 280 278 279 281 283 282 280 272 281 280
225 225 228 231 232 233 236 235 237 242 245 245 247 249 250 251 254 257 258 259 261 263 262 262 264 265 266 271 274 276 274 272 272 275 276 277 277 279 282 279 282 280 281 281 282 281 280 279 279
224 226 226 231 233 237 235 235 240 241 242 245 246 247 248 250 251 255 257 259 260 262 263 265 267 268 267 269 271 272 271 275 274 273 272 272 276 277 283 282 281 280 281 282 282 282 283 283 284
226 228 227 227 232 234 238 236 243 242 242 246 245 247 251 252 254 256 259 260 262 263 264 265 265 267 267 267 271 270 271 273 275 276 277 277 278 278 275 281 280 278 279 279 280 282 286 284 286
223 226 229 230 228 230 237 235 241 243 244 245 248 250 253 252 255 256 258 257 260 262 262 265 267 268 268 268 269 270 271 273 274 276 278 280 280 276 275 278 283 278 274 278 280 282 282 283 286
226 228 230 231 232 229 235 238 240 245 246 247 250 250 254 255 253 256 259 261 262 263 266 266 268 269 270 271 272 273 273 274 275 276 277 276 277 277 278 280 281 275 276 279 280 281 282 282 285
229 230 234 232 231 231 232 234 240 243 247 248 251 253 255 257 258 258 260 261 263 266 267 267 267 269 271 272 272 273 273 274 274 273 276 277 278 279 280 281 277 275 275 276 278 280 281 283 284
230 232 230 230 232 234 235 236 238 239 246 252 254 255 256 259 261 263 264 266 266 267 269 269 269 269 270 270 270 271 272 274 275 275 276 276 275 276 276 275 275 274 274 275 278 280 280 281 281
229 229 231 233 233 233 234 238 240 241 244 249 252 255 258 259 261 264 266 267 268 267 271 271 264 273 272 271 271 272 274 274 274 275 274 272 271 270 274 274 270 269 271 273 275 276 274 273 276
228 228 232 234 236 237 240 241 242 244 247 250 252 252 255 258 261 263 263 264 266 262 268 269 268 271 285 268 270 269 272 269 270 269 269 269 269 268 268 269 269 269 270 271 270 269 269 272 274
225 228 231 235 237 238 243 247 248 250 252 253 255 258 262 263 263 264 267 269 273 270 271 271 270 271 270 278 271 269 267 267 267 267 267 267 277 275 265 272 267 269 270 267 264 267 270 271 273